一网星座-0137星 (ONEWEB-0137 )

导读

ONEWEB-0137是英国OneWeb星座体系下的低轨互联网卫星,于2020年12月18日发射入轨。OneWeb星座计划部署近650颗卫星,运行于1200公里近地轨道,旨在为全球提供低延迟宽带网络服务。该卫星与同星座其他卫星共同组网,填补地面网络覆盖盲区,支撑全球互联互通,是低轨卫星互联网建设的重要组成节点。

Basic Information
目录编号:
47283
目录名称:
ONEWEB-0137
国际标识:
2020-100AB
轨道中心:
EARTH
卫星名称:
一网星座-0137星
卫星全名:
一网星座-0137星 (ONEWEB-0137 )
卫星状态:
在轨 (已飞行2097 天)
发射日期:
2020-12-18 UTC
国别 :
英国 (GB)
星等 :
--
This satellite is enrolled in the Space Conjunction Data Service (SCDS) and the current flight risk assessment level is: No High Risk
Orbit Information
数据来源 国际轨道数据 AOE轨道数据
星历时间 2026-09-15T12:26:51+0800
17小时前
查看轨道信息
2026-09-13T11:00:00+0800
2天前
查看轨道信息
半长轴 7591.859km 7591.891km
偏心率 0.0001916 0.0001804
轨道倾角 87.899° 87.900°
近地点辐角 103.319° 78.445°
升交点赤经 332.799° 333.208°
平近点角 256.815° 272.639°
近地点 1212.267km 1212.384km
远地点 1215.177km 1215.124km
周期 109.719分钟 109.720分钟
每日圈数 13.124434 13.124352
Detailed Information
平衡模式:
三轴稳定
覆盖范围:
全球
运营商:
一网卫星公司
运营商所在国:
英国
制造商(研发单位):
一网卫星公司
制造商所在国:
英国
使用方式:
暂无
Satellite Introduction
OneWeb卫星网络由648颗重约125公斤的微型卫星组成,运行在1200公里的轨道上。 每颗卫星都能够提供至少每秒8千兆位的吞吐量,以使用其高吞吐量的Ku频段有效载荷为家庭和移动平台提供互联网接入。该卫星仍在工作。
2D Orbit Map
3D Orbit Map
Orbit Altitude Analysis Chart
Orbit Inclination Analysis Chart
Orbit Comprehensive Analysis Chart
View Comprehensive Chart
Miss Distance Evolution Trend with All Objects Subscribe to Flight Safety Assessment
Collision Probability Evolution Trend with All Objects Subscribe to Flight Safety Assessment